Location: Deuil
(48.9767°N, 2.3272°E)
Time: 15:34:46
(UTC+00:00)

Cosmos 44 - Pass Details

Date: 24 October 2021
Orbit: 579 x 782 km, 65.1° (Epoch: 28 November)

Event Time Altitude Azimuth Distance (km) Brightness Sun altitude
Rises 18:32:26 0° 206° (SSW) 3,254 7.1 -18.5°
Reaches altitude 10° 18:34:52 10° 203° (SSW) 2,332 6.2 -18.9°
Maximum altitude 18:40:11 63° 123° (ESE) 866 3.5 -19.7°
Enters shadow 18:42:34 32° 54° (NE) 1,298 4.3 -20.1°
